EN

Hourly Weather Malye Letcy

Today, 24 November, Tuesday

Time Temperature Precipitation Wind Pressure Humidity
00:00 +3°C° 0.1 mm 4 mps 744 mmHg 90%
01:00 +3°C° 0.1 mm 4 mps 744 mmHg 89%
02:00 +2°C° 0 mm 5 mps 744 mmHg 88%
03:00 +1°C° 0 mm 5 mps 744 mmHg 88%
04:00 +1°C° 0 mm 5 mps 744 mmHg 89%
05:00 +1°C° 0 mm 5 mps 744 mmHg 89%
06:00 +1°C° 0.3 mm 5 mps 744 mmHg 90%
07:00 +1°C° 0.3 mm 5 mps 744 mmHg 91%
08:00 +1°C° 0 mm 6 mps 745 mmHg 91%
09:00 +2°C° 0.1 mm 6 mps 745 mmHg 86%
10:00 +2°C° 0.1 mm 6 mps 746 mmHg 80%
11:00 +2°C° 0.1 mm 6 mps 746 mmHg 75%
12:00 +2°C° 0 mm 6 mps 746 mmHg 75%
13:00 +2°C° 0 mm 5 mps 747 mmHg 74%
14:00 +2°C° 0 mm 5 mps 747 mmHg 74%
15:00 +2°C° 0 mm 5 mps 747 mmHg 75%
16:00 +1°C° 0 mm 4 mps 747 mmHg 75%
17:00 +2°C° 0 mm 3 mps 747 mmHg 76%
18:00 +2°C° 0 mm 3 mps 747 mmHg 81%
19:00 +2°C° 0 mm 3 mps 747 mmHg 85%
20:00 +1°C° 0 mm 3 mps 747 mmHg 89%
21:00 +1°C° 0.1 mm 3 mps 747 mmHg 91%
22:00 +2°C° 0.1 mm 2 mps 747 mmHg 93%
23:00 +2°C° 0.1 mm 2 mps 747 mmHg 94%

Tomorrow, 25 November, Wednesday

Time Temperature Precipitation Wind Pressure Humidity
00:00 +3°C° 0.3 mm 2 mps 747 mmHg 95%
01:00 +3°C° 0.3 mm 2 mps 747 mmHg 96%
02:00 +4°C° 0.3 mm 1 mps 747 mmHg 97%
03:00 +4°C° 0.4 mm 1 mps 747 mmHg 97%
04:00 +4°C° 0.4 mm 1 mps 747 mmHg 98%
05:00 +4°C° 0.4 mm 1 mps 746 mmHg 98%
06:00 +4°C° 0.3 mm 1 mps 747 mmHg 98%
07:00 +3°C° 0.3 mm 0 mps 747 mmHg 98%
08:00 +3°C° 0.3 mm 0 mps 747 mmHg 98%
09:00 +4°C° 0.1 mm 0 mps 747 mmHg 96%
10:00 +4°C° 0.1 mm 0 mps 748 mmHg 95%
11:00 +4°C° 0.1 mm 0 mps 748 mmHg 94%
12:00 +5°C° 0 mm 0 mps 748 mmHg 93%
13:00 +5°C° 0 mm 0 mps 749 mmHg 92%
14:00 +6°C° 0 mm 1 mps 749 mmHg 91%
15:00 +6°C° 0 mm 1 mps 749 mmHg 92%
16:00 +6°C° 0 mm 1 mps 749 mmHg 93%
17:00 +5°C° 0 mm 1 mps 749 mmHg 94%
18:00 +5°C° 0 mm 1 mps 750 mmHg 95%
19:00 +5°C° 0 mm 2 mps 750 mmHg 95%
20:00 +5°C° 0 mm 2 mps 750 mmHg 95%
21:00 +5°C° 0.2 mm 2 mps 750 mmHg 96%
22:00 +5°C° 0.2 mm 2 mps 750 mmHg 97%
23:00 +4°C° 0.2 mm 3 mps 749 mmHg 97%

Day after tomorrow, 26 November, Thursday

Time Temperature Precipitation Wind Pressure Humidity
00:00 +5°C° 0.2 mm 3 mps 749 mmHg 97%
01:00 +5°C° 0.2 mm 3 mps 749 mmHg 96%
02:00 +7°C° 0.2 mm 3 mps 749 mmHg 96%
03:00 +7°C° 0 mm 3 mps 749 mmHg 95%
04:00 +5°C° 0 mm 3 mps 749 mmHg 95%
05:00 +5°C° 0 mm 3 mps 749 mmHg 95%
06:00 +5°C° 0 mm 4 mps 749 mmHg 93%
07:00 +5°C° 0 mm 4 mps 749 mmHg 92%
08:00 +5°C° 0 mm 4 mps 749 mmHg 90%
09:00 +4°C° 0 mm 4 mps 748 mmHg 84%
10:00 +2°C° 0 mm 5 mps 748 mmHg 79%
11:00 +2°C° 0 mm 5 mps 748 mmHg 73%
12:00 +2°C° 0 mm 5 mps 748 mmHg 72%
13:00 +3°C° 0 mm 4 mps 748 mmHg 72%
14:00 +3°C° 0 mm 4 mps 748 mmHg 71%
15:00 +1°C° 0 mm 4 mps 747 mmHg 73%
16:00 +1°C° 0 mm 4 mps 747 mmHg 76%
17:00 0°C° 0 mm 4 mps 746 mmHg 78%
18:00 0°C° 0 mm 4 mps 746 mmHg 80%
19:00 -1°C° 0 mm 4 mps 746 mmHg 82%
20:00 0°C° 0 mm 3 mps 746 mmHg 84%
21:00 0°C° 0 mm 3 mps 746 mmHg 85%
22:00 -1°C° 0 mm 4 mps 746 mmHg 85%
23:00 -1°C° 0 mm 4 mps 745 mmHg 86%

27 November, Friday

Time Temperature Precipitation Wind Pressure Humidity
00:00 0°C° 0 mm 3 mps 745 mmHg 88%
01:00 -1°C° 0 mm 3 mps 745 mmHg 89%
02:00 -1°C° 0 mm 3 mps 745 mmHg 91%
03:00 -1°C° 0 mm 3 mps 744 mmHg 91%
04:00 -1°C° 0 mm 4 mps 744 mmHg 91%
05:00 -1°C° 0 mm 4 mps 743 mmHg 91%
06:00 -1°C° 0.2 mm 4 mps 743 mmHg 91%
07:00 -1°C° 0.2 mm 4 mps 743 mmHg 92%
08:00 -1°C° 0.2 mm 4 mps 743 mmHg 93%
09:00 0°C° 0.6 mm 4 mps 743 mmHg 93%
10:00 0°C° 0.6 mm 4 mps 742 mmHg 93%
11:00 +1°C° 0.6 mm 4 mps 742 mmHg 93%
12:00 +1°C° 0 mm 5 mps 742 mmHg 91%
13:00 +2°C° 0 mm 5 mps 742 mmHg 88%
14:00 +3°C° 0 mm 6 mps 742 mmHg 86%
15:00 +2°C° 0.2 mm 6 mps 742 mmHg 88%
16:00 +2°C° 0.2 mm 6 mps 742 mmHg 89%
17:00 +1°C° 0.2 mm 6 mps 743 mmHg 91%
18:00 +1°C° 0 mm 5 mps 743 mmHg 87%
19:00 0°C° 0 mm 5 mps 744 mmHg 84%
20:00 -1°C° 0 mm 4 mps 744 mmHg 80%
21:00 -1°C° 0 mm 4 mps 745 mmHg 80%
22:00 -1°C° 0 mm 3 mps 745 mmHg 79%
23:00 -1°C° 0 mm 3 mps 746 mmHg 79%

28 November, Saturday

Time Temperature Precipitation Wind Pressure Humidity
00:00 -1°C° 0 mm 3 mps 746 mmHg 83%
01:00 -1°C° 0 mm 3 mps 747 mmHg 88%
02:00 -2°C° 0 mm 3 mps 747 mmHg 92%
03:00 -2°C° 0 mm 3 mps 748 mmHg 90%
04:00 -2°C° 0 mm 3 mps 748 mmHg 89%
05:00 -1°C° 0 mm 3 mps 748 mmHg 87%
06:00 -1°C° 0 mm 3 mps 749 mmHg 85%
07:00 -1°C° 0 mm 3 mps 749 mmHg 82%
08:00 -1°C° 0 mm 3 mps 750 mmHg 79%
09:00 -1°C° 0 mm 3 mps 750 mmHg 79%
10:00 -1°C° 0 mm 3 mps 750 mmHg 79%
11:00 0°C° 0 mm 3 mps 751 mmHg 78%
12:00 0°C° 0 mm 3 mps 751 mmHg 81%
13:00 0°C° 0 mm 3 mps 751 mmHg 83%
14:00 -1°C° 0 mm 3 mps 751 mmHg 85%
15:00 -1°C° 0 mm 3 mps 752 mmHg 85%
16:00 -1°C° 0 mm 3 mps 752 mmHg 85%
17:00 -1°C° 0 mm 3 mps 752 mmHg 84%
18:00 -1°C° 0 mm 2 mps 753 mmHg 85%
19:00 -1°C° 0 mm 2 mps 753 mmHg 86%
20:00 -1°C° 0 mm 2 mps 753 mmHg 87%
21:00 -2°C° 0 mm 2 mps 754 mmHg 87%
22:00 -2°C° 0 mm 2 mps 754 mmHg 87%
23:00 -3°C° 0 mm 2 mps 754 mmHg 87%

29 November, Sunday

Time Temperature Precipitation Wind Pressure Humidity
00:00 -2°C° 0 mm 2 mps 754 mmHg 85%
01:00 -2°C° 0 mm 2 mps 755 mmHg 83%
02:00 -2°C° 0 mm 2 mps 755 mmHg 81%
03:00 -2°C° 0 mm 2 mps 755 mmHg 81%
04:00 -2°C° 0 mm 3 mps 755 mmHg 82%
05:00 -2°C° 0 mm 3 mps 755 mmHg 82%
06:00 -2°C° 0 mm 3 mps 755 mmHg 83%
07:00 -4°C° 0 mm 3 mps 755 mmHg 84%
08:00 -4°C° 0 mm 3 mps 755 mmHg 84%
09:00 -4°C° 0 mm 3 mps 756 mmHg 82%
10:00 -4°C° 0 mm 4 mps 756 mmHg 80%
11:00 -4°C° 0 mm 4 mps 756 mmHg 78%
12:00 -4°C° 0 mm 4 mps 756 mmHg 77%
13:00 -3°C° 0 mm 4 mps 756 mmHg 76%
14:00 -3°C° 0 mm 4 mps 756 mmHg 75%
15:00 -3°C° 0 mm 4 mps 756 mmHg 75%
16:00 -3°C° 0 mm 4 mps 756 mmHg 76%
17:00 -3°C° 0 mm 4 mps 756 mmHg 76%
18:00 -3°C° 0 mm 4 mps 756 mmHg 76%
19:00 -4°C° 0 mm 4 mps 756 mmHg 76%
20:00 -5°C° 0 mm 5 mps 756 mmHg 76%
21:00 -4°C° 0 mm 4 mps 756 mmHg 77%
22:00 -4°C° 0 mm 4 mps 755 mmHg 78%
23:00 -4°C° 0 mm 4 mps 755 mmHg 79%
Show more

We Need Your Consent

Meteoprog and our Service Providers may store and access personal data such as cookies, device identifiers or other similar technologies on your device and process such data to personalise content and ads, as well as provide social media features and to analyse the traffic.

  • Store and/or access information on your device

    Cookies, device identifiers or other information can be stored or accessed on your device for the purposes indicated above.

  • Personalised ads and content, ad and content measurement, audience insights, and products development

    Ads and content can be personalised based on a profile. More data can be added to better personalise ads and content. Ad and content performance can be measured. Insights about the audience who saw the ads and content can be derived. Such data can be used to develop or improve user’s experience, systems and software.

By clicking ‘I Agree’ you will allow the use of indicated cookies, device identifiers, web beacons or other similar technologies. Your settings can be changed in the browser on your device.

For certain purposes, legitimate interests may be relied on, rather than consent. You can read more about this in our Privacy and Cookie Policy.